TimeMST,TemperatureF,Dew PointF,Humidity,Sea Level PressureIn,VisibilityMPH,Wind Direction,Wind SpeedMPH,Gust SpeedMPH,PrecipitationIn,Events,Conditions,WindDirDegrees,DateUTC
12:55 AM,73.4,55.4,53,29.97,10.0,West,6.9,-,N/A,,Partly Cloudy,260,2013-08-16 07:55:00
1:55 AM,71.6,60.8,69,29.96,10.0,South,3.5,-,N/A,,Partly Cloudy,190,2013-08-16 08:55:00
2:55 AM,71.6,59.0,64,29.95,10.0,SW,3.5,-,N/A,,Partly Cloudy,230,2013-08-16 09:55:00
3:55 AM,69.8,60.8,73,29.96,10.0,Calm,Calm,-,N/A,,Partly Cloudy,0,2013-08-16 10:55:00
4:55 AM,71.6,57.2,60,29.97,10.0,SW,3.5,-,N/A,,Partly Cloudy,220,2013-08-16 11:55:00
5:55 AM,69.8,60.8,73,29.99,10.0,Calm,Calm,-,N/A,,Scattered Clouds,0,2013-08-16 12:55:00
6:55 AM,73.4,59.0,61,29.99,10.0,West,3.5,-,N/A,,Scattered Clouds,270,2013-08-16 13:55:00
7:55 AM,75.2,60.8,61,30.03,10.0,Calm,Calm,-,N/A,,Partly Cloudy,0,2013-08-16 14:55:00
8:55 AM,80.6,60.8,51,30.02,10.0,ESE,8.1,-,N/A,,Scattered Clouds,120,2013-08-16 15:55:00
9:55 AM,84.2,60.8,45,30.02,10.0,East,9.2,-,N/A,,Scattered Clouds,100,2013-08-16 16:55:00
10:55 AM,87.8,59.0,38,30.01,10.0,East,10.4,-,N/A,,Scattered Clouds,100,2013-08-16 17:55:00
11:55 AM,87.8,57.2,35,29.99,10.0,East,11.5,-,N/A,,Scattered Clouds,100,2013-08-16 18:55:00
12:55 PM,91.4,53.6,28,29.97,10.0,SSE,10.4,20.7,N/A,,Scattered Clouds,160,2013-08-16 19:55:00
1:55 PM,89.6,51.8,27,29.96,10.0,SSE,11.5,16.1,N/A,,Scattered Clouds,150,2013-08-16 20:55:00
2:55 PM,89.6,51.8,27,29.94,10.0,Variable,5.8,-,N/A,,Mostly Cloudy,0,2013-08-16 21:55:00
3:55 PM,91.4,50.0,24,30.13,10.0,SE,8.1,-,N/A,,Mostly Cloudy,130,2013-08-16 22:55:00
4:56 PM,91.9,46.9,21,29.90,10.0,SSE,5.8,-,N/A,,Partly Cloudy,150,2013-08-16 23:56:00
5:56 PM,89.6,50.0,26,30.13,10.0,SSE,5.8,-,N/A,,Partly Cloudy,160,2013-08-17 00:56:00
6:56 PM,88.0,51.1,28,29.92,10.0,Calm,Calm,-,N/A,,Clear,0,2013-08-17 01:56:00
7:56 PM,82.0,55.0,39,29.94,10.0,WSW,9.2,-,N/A,,Partly Cloudy,250,2013-08-17 02:56:00
8:56 PM,78.1,57.0,48,29.98,10.0,NW,12.7,-,N/A,,Mostly Cloudy,310,2013-08-17 03:56:00
9:56 PM,75.9,57.9,54,29.99,10.0,West,12.7,-,N/A,,Clear,270,2013-08-17 04:56:00
10:56 PM,79.0,55.0,44,30.00,10.0,West,10.4,-,N/A,,Clear,270,2013-08-17 05:56:00
11:56 PM,77.0,55.0,47,29.99,10.0,SW,9.2,-,N/A,,Clear,230,2013-08-17 06:56:00